Location: Newark
(51.0089°N, 21.5817°E)
Time: 00:03:15
(UTC+00:00)

XW-2F - Pass Details

Date: 23 February 2020
Orbit: 504 x 521 km, 97.5° (Epoch: 01 April)

Event Time Altitude Azimuth Distance (km) Brightness Sun altitude
Rises 04:40:29 0° 15° (NNE) 2,632 ? -8.8°
Reaches altitude 10° 04:42:35 10° 18° (NNE) 1,743 ? -8.5°
Maximum altitude 04:46:20 67° 102° (ESE) 561 ? -7.9°
Drops below altitude 10° 04:50:04 10° 186° (S) 1,739 ? -7.3°
Sets 04:52:10 0° 189° (S) 2,623 ? -7.0°
